Date,TemperatureHighF,TemperatureAvgF,TemperatureLowF,DewpointHighF,DewpointAvgF,DewpointLowF,HumidityHigh,HumidityAvg,HumidityLow,PressureMaxIn,PressureMinIn,WindSpeedMaxMPH,WindSpeedAvgMPH,GustSpeedMaxMPH,PrecipitationSumIn
2013-2-1,57.0,46.5,40.0,43.0,40.6,39.0,96,81,55,0.00,40.00,7,3,15,0.00
2013-2-2,59.0,47.9,42.0,44.0,40.7,37.0,86,77,51,0.00,40.00,7,3,14,0.00
2013-2-3,52.0,47.4,44.0,44.0,42.0,38.0,91,82,63,0.00,40.00,3,0,7,0.00
2013-2-4,51.0,46.4,42.0,44.0,41.7,40.0,93,83,70,0.00,40.00,11,3,22,0.00
2013-2-5,52.0,47.0,44.0,49.0,42.9,39.0,93,86,75,0.00,40.00,14,9,28,0.43
2013-2-6,50.0,46.0,41.0,45.0,41.3,37.0,92,84,65,0.00,40.00,17,8,32,0.53
2013-2-7,44.0,39.8,38.0,40.0,37.0,35.0,93,90,84,0.00,40.00,10,5,20,0.70
2013-2-8,49.0,40.1,33.0,40.0,34.7,31.0,95,82,63,0.00,40.00,14,4,27,0.01
2013-2-9,51.0,41.9,32.0,45.0,37.6,30.0,95,85,63,0.00,40.00,3,0,7,0.00
2013-2-10,52.0,46.5,41.0,48.0,40.5,35.0,96,80,56,0.00,40.00,9,3,18,0.01
2013-2-11,52.0,45.3,41.0,45.0,39.2,35.0,95,80,52,0.00,40.00,5,1,10,0.05
2013-2-12,53.0,47.9,45.0,49.0,45.9,44.0,97,93,83,0.00,40.00,5,1,10,0.17
2013-2-13,52.0,47.5,45.0,49.0,45.6,43.0,96,93,83,0.00,40.00,5,1,7,0.07
2013-2-14,56.0,47.2,41.0,46.0,42.9,40.0,96,86,64,0.00,40.00,10,3,17,0.01
2013-2-15,63.0,49.4,39.0,47.0,43.1,37.0,96,81,50,0.00,40.00,5,1,14,0.00
2013-2-16,52.0,47.1,42.0,47.0,42.2,36.0,95,83,68,0.00,40.00,8,3,17,0.01
2013-2-17,50.0,43.1,37.0,42.0,36.2,32.0,93,78,55,0.00,40.00,8,2,15,0.04
2013-2-18,47.0,39.7,33.0,40.0,35.7,31.0,94,86,71,0.00,40.00,14,5,22,0.37
2013-2-19,49.0,42.3,36.0,40.0,36.8,33.0,93,81,65,0.00,40.00,9,3,19,0.67
2013-2-20,46.0,40.6,33.0,41.0,36.7,31.0,94,86,74,0.00,40.00,7,2,22,0.21
2013-2-21,45.0,42.6,39.0,42.0,38.5,33.0,94,86,75,0.00,40.00,9,4,18,0.39
2013-2-22,49.0,45.4,43.0,48.0,42.1,34.0,97,89,66,0.00,40.00,20,10,35,0.89
2013-2-23,49.0,42.0,36.0,39.0,34.3,32.0,91,75,53,0.00,40.00,10,4,23,0.13
2013-2-24,52.0,43.3,36.0,42.0,35.5,29.0,93,76,41,0.00,40.00,12,3,18,0.01
2013-2-25,51.0,44.1,36.0,44.0,36.5,32.0,94,76,49,0.00,40.00,16,5,28,0.43
2013-2-26,52.0,41.6,35.0,39.0,35.0,32.0,93,79,52,0.00,40.00,4,2,11,0.03
2013-2-27,51.0,46.6,42.0,39.0,35.9,26.0,85,67,38,0.00,40.00,9,3,19,0.35